Weather History for Apalachicola, FL

Change the Weather History Date:

Tuesday, December 25, 2012

  Actual Average Record
Temperature  
Mean Temperature 65 °F 53 °F  
Max Temperature 70 °F 64 °F 79 °F (1984)
Min Temperature 59 °F 43 °F 15 °F (1983)
Degree Days  
Heating Degree Days 0    
Month to date heating degree days 153  
Since 1 July heating degree days 356  
Cooling Degree Days 0    
Month to date cooling degree days 12  
Year to date cooling degree days 2770  
Growing Degree Days 14 (Base 50)    
Moisture  
Dew Point 62 °F    
Average Humidity 92    
Maximum Humidity 100    
Minimum Humidity 84    
Precipitation  
Precipitation 0.36 in 0.11 in 2.32 in (2002)
Month to date precipitation 1.36 2.67  
Year to date precipitation 56.99 57.06  
Sea Level Pressure  
Sea Level Pressure 29.89 in    
Wind  
Wind Speed 10 mph (South)    
Max Wind Speed 22 mph    
Max Gust Speed 30 mph    
Visibility 6 miles    
Events Fog , Rain    
T = Trace of Precipitation, MM = Missing Value Source: NWS Daily Summary

Daily Weather History Graph

Daily Weather History Graph

Search for Another Location

Airport:

Trip Planner

Search our weather history database for the weather conditions in past years. The results will help you decide how hot, cold, wet, or windy it might be!

Date:

Astronomy

Dec. 25, 2012 Rise Set
Actual Time 7:33 AM EST 5:47 PM EST
Civil Twilight 7:06 AM EST 6:14 PM EST
Nautical Twilight 6:37 AM EST 6:43 PM EST
Astronomical Twilight 6:07 AM EST 7:13 PM EST
Moon 3:52 PM EST (12/25) 5:08 AM EST (12/25)
Length of Visible Light 11h 07m
Length of Day
10h 14m
Waxing Gibbous, 93% of the Moon is Illuminated
Dec 25
Waxing Gibbous
Dec 28
Full
Jan 4
Last Quarter
Jan 11
New
Jan 18
First Quarter

Hourly Weather History & Observations

Time (EST) Temp. Dew Point Humidity Pressure Visibility Wind Dir Wind Speed Gust Speed Precip Events Conditions
12:53 AM 61.0 °F 59.0 °F 93% 29.94 in 10.0 mi SW 3.5 mph - N/A   Clear
1:53 AM 64.9 °F 63.0 °F 93% 29.94 in 10.0 mi SW 6.9 mph - N/A   Mostly Cloudy
2:21 AM 66.2 °F 62.6 °F 88% 29.93 in 10.0 mi SSW 6.9 mph - 0.00 in Rain Light Rain
2:33 AM 64.4 °F 62.6 °F 94% 29.93 in 2.0 mi SSW 3.5 mph - 0.08 in Rain Light Rain
2:41 AM 64.4 °F 62.6 °F 94% 29.93 in 5.0 mi SW 5.8 mph - 0.09 in Rain Light Rain
2:53 AM 64.9 °F 62.1 °F 90% 29.93 in 4.0 mi SW 5.8 mph - 0.13 in Rain Light Rain
2:56 AM 64.4 °F 62.6 °F 94% 29.93 in 2.5 mi SW 6.9 mph - 0.01 in Rain Heavy Rain
3:04 AM 66.2 °F 62.6 °F 88% 29.93 in 2.0 mi SSW 5.8 mph - 0.11 in Rain Light Rain
3:06 AM 66.2 °F 62.6 °F 88% 29.93 in 3.0 mi SSW 4.6 mph - 0.12 in Rain Light Rain
3:19 AM 66.2 °F 62.6 °F 88% 29.93 in 2.0 mi WNW 8.1 mph - 0.18 in Rain Rain
3:28 AM 64.4 °F 62.6 °F 94% 29.92 in 4.0 mi WNW 3.5 mph - 0.19 in Rain Light Rain
3:31 AM 64.4 °F 62.6 °F 94% 29.92 in 5.0 mi Calm Calm - 0.19 in Rain Light Rain
3:48 AM 64.4 °F 62.6 °F 94% 29.93 in 8.0 mi WSW 8.1 mph - 0.20 in Rain Light Rain
3:53 AM 66.0 °F 63.0 °F 90% 29.93 in 4.0 mi WSW 5.8 mph - 0.20 in Rain Rain
4:10 AM 66.2 °F 64.4 °F 94% 29.93 in 10.0 mi West 4.6 mph - 0.03 in Rain Light Rain
4:19 AM 66.2 °F 64.4 °F 94% 29.92 in 10.0 mi West 6.9 mph - 0.03 in   Overcast
4:53 AM 64.9 °F 62.1 °F 90% 29.91 in 10.0 mi Calm Calm - 0.03 in   Mostly Cloudy
5:17 AM 62.6 °F 60.8 °F 94% 29.92 in 1.8 mi Calm Calm - N/A   Scattered Clouds
5:28 AM 62.6 °F 60.8 °F 94% 29.92 in 0.5 mi Calm Calm - N/A Fog Fog
5:40 AM 62.6 °F 60.8 °F 94% 29.92 in 0.5 mi SSE 3.5 mph - N/A Fog Fog
5:50 AM 60.8 °F 60.8 °F 100% 29.92 in 0.5 mi Calm Calm - N/A Fog Fog
5:53 AM 61.0 °F 60.1 °F 97% 29.92 in 0.2 mi Calm Calm - N/A Fog Fog
6:05 AM 60.8 °F 59.0 °F 94% 29.92 in 0.8 mi Calm Calm - N/A   Mist
6:27 AM 60.8 °F 60.8 °F 100% 29.93 in 1.2 mi Calm Calm - N/A   Scattered Clouds
6:41 AM 60.8 °F 59.0 °F 94% 29.93 in 0.8 mi Calm Calm - N/A   Mist
6:53 AM 60.1 °F 59.0 °F 96% 29.93 in 0.8 mi Calm Calm - N/A   Mist
7:01 AM 60.8 °F 57.2 °F 88% 29.93 in 1.0 mi Calm Calm - N/A   Mist
7:08 AM 60.8 °F 59.0 °F 94% 29.93 in 0.8 mi Calm Calm - N/A   Mist
7:11 AM 60.8 °F 59.0 °F 94% 29.93 in 1.2 mi Calm Calm - N/A   Partly Cloudy
7:16 AM 59.0 °F 57.2 °F 94% 29.93 in 3.0 mi Calm Calm - N/A   Partly Cloudy
7:21 AM 60.8 °F 57.2 °F 88% 29.93 in 1.8 mi Calm Calm - N/A   Partly Cloudy
7:33 AM 59.0 °F 57.2 °F 94% 29.94 in 3.0 mi Calm Calm - N/A   Clear
7:40 AM 59.0 °F 57.2 °F 94% 29.94 in 1.8 mi Calm Calm - N/A   Partly Cloudy
7:47 AM 59.0 °F 57.2 °F 94% 29.94 in 0.2 mi Calm Calm - N/A Fog Fog
7:48 AM 59.0 °F 57.9 °F 96% 29.94 in 0.2 mi Calm Calm - N/A Fog Fog
7:56 AM 60.8 °F 57.2 °F 88% 29.94 in 0.2 mi SSE 3.5 mph - N/A Fog Fog
8:01 AM 60.8 °F 57.2 °F 88% 29.94 in 0.5 mi SSE 5.8 mph - N/A Fog Fog
8:13 AM 64.4 °F 62.6 °F 94% 29.93 in 2.0 mi SE 5.8 mph - N/A   Mostly Cloudy
8:20 AM 66.2 °F 64.4 °F 94% 29.93 in 10.0 mi SSE 5.8 mph - N/A   Partly Cloudy
8:53 AM 66.9 °F 64.9 °F 93% 29.93 in 10.0 mi SSE 8.1 mph - N/A   Clear
9:53 AM 68.0 °F 64.9 °F 90% 29.92 in 10.0 mi SSE 9.2 mph - N/A   Clear
10:53 AM 70.0 °F 64.9 °F 84% 29.93 in 10.0 mi SSE 12.7 mph - N/A   Overcast
11:53 AM 69.1 °F 64.0 °F 84% 29.92 in 10.0 mi SSE 10.4 mph - 0.00 in Rain Light Rain
12:46 PM 69.8 °F 64.4 °F 83% 29.89 in 10.0 mi SSE 10.4 mph - 0.00 in   Overcast
12:53 PM 69.1 °F 64.9 °F 87% 29.88 in 10.0 mi South 9.2 mph - 0.00 in   Overcast
1:53 PM 69.1 °F 66.0 °F 90% 29.87 in 7.0 mi South 10.4 mph - 0.00 in   Overcast
2:18 PM 69.8 °F 64.4 °F 83% 29.86 in 8.0 mi South 11.5 mph - N/A   Mostly Cloudy
2:45 PM 69.8 °F 64.4 °F 83% 29.85 in 8.0 mi South 13.8 mph 19.6 mph N/A   Overcast
2:53 PM 69.1 °F 64.9 °F 87% 29.85 in 8.0 mi South 11.5 mph - N/A   Overcast
3:53 PM 70.0 °F 64.0 °F 81% 29.84 in 9.0 mi South 12.7 mph - N/A   Mostly Cloudy
4:53 PM 69.1 °F 64.0 °F 84% 29.85 in 10.0 mi SSE 10.4 mph - N/A   Mostly Cloudy
5:53 PM 66.9 °F 63.0 °F 87% 29.80 in 10.0 mi SE 13.8 mph 23.0 mph N/A   Clear
6:53 PM 66.0 °F 63.0 °F 90% 29.78 in 7.0 mi SE 16.1 mph 23.0 mph N/A   Mostly Cloudy
7:39 PM 66.2 °F 64.4 °F 94% 29.82 in 9.0 mi SE 11.5 mph 18.4 mph N/A   Mostly Cloudy
7:53 PM 66.9 °F 64.0 °F 90% 29.84 in 9.0 mi SSE 12.7 mph - N/A   Overcast
8:48 PM 66.2 °F 64.4 °F 94% 29.82 in 8.0 mi SSE 13.8 mph - N/A   Overcast
8:53 PM 66.9 °F 64.0 °F 90% 29.83 in 8.0 mi SSE 12.7 mph - 0.00 in Rain Light Rain
9:00 PM 66.2 °F 64.4 °F 94% 29.82 in 9.0 mi SSE 16.1 mph - 0.00 in Rain Light Rain
9:10 PM 68.0 °F 64.4 °F 88% 29.81 in 9.0 mi SE 17.3 mph 25.3 mph 0.00 in   Overcast
9:29 PM 66.2 °F 64.4 °F 94% 29.80 in 8.0 mi South 17.3 mph 24.2 mph 0.00 in   Overcast
9:53 PM 68.0 °F 64.0 °F 87% 29.78 in 9.0 mi SSE 17.3 mph - 0.00 in Rain Light Rain
10:30 PM 68.0 °F 64.4 °F 88% 29.78 in 8.0 mi South 19.6 mph 29.9 mph N/A   Overcast
10:53 PM 68.0 °F 64.0 °F 87% 29.78 in 9.0 mi South 16.1 mph - N/A   Overcast
11:06 PM 68.0 °F 64.4 °F 88% 29.78 in 9.0 mi South 16.1 mph - N/A   Overcast
11:53 PM 68.0 °F 64.0 °F 87% 29.77 in 8.0 mi South 19.6 mph 24.2 mph 0.00 in   Overcast